Вернуться в каталог

STARLINK-31909

АктивенСвязьVLEO
NORAD 59663·PAYLOAD·🇺🇸 United States

Запущен May 6, 2024 с Cape Canaveral Space Force Station

Loading…

Ближайшие Пролёты (ближайшие 24 часа)

TLE

СвежийSource: CelesTrak SupGP

Эпоха: Sep 14, 2026, 22:43 UTC

1 59663C 24084K   26257.94701389  .00045604  00000+0  16517-2 0  2577
2 59663  43.0043  52.6111 0001640 275.9331  35.7027 15.27558019    10

Отслеживайте STARLINK-31909 в реальном времени с AllMySat

Download on the App Store